Weather History for Charlottesville, VA

Change the Weather History Date:

Sunday, December 12, 2010

  Actual Average Record
Temperature  
Mean Temperature 37 °F 38 °F  
Max Temperature 40 °F 48 °F 75 °F (1931)
Min Temperature 34 °F 29 °F 9 °F (1957)
Degree Days  
Heating Degree Days 28 27  
Month to date heating degree days 374 301  
Since 1 July heating degree days 1081 1192  
Cooling Degree Days 0 0  
Month to date cooling degree days 0 0  
Year to date cooling degree days 1713 1035  
Moisture  
Dew Point 34 °F    
Average Humidity 96    
Maximum Humidity 100    
Minimum Humidity 92    
Precipitation  
Precipitation 0.23 in 0.12 in 0.23 in (2010)
Month to date precipitation 1.96 1.44  
Year to date precipitation 35.18 41.00  
Sea Level Pressure  
Sea Level Pressure 29.52 in    
Wind  
Wind Speed 2 mph (South)    
Max Wind Speed 10 mph    
Max Gust Speed 13 mph    
Visibility 2 miles    
Events Fog , Rain    
T = Trace of Precipitation, MM = Missing Value Source: NWS Daily Summary

Daily Weather History Graph

Daily Weather History Graph

Search for Another Location

Airport:

Trip Planner

Search our weather history database for the weather conditions in past years. The results will help you decide how hot, cold, wet, or windy it might be!

Date:

Astronomy

Dec. 12, 2010 Rise Set
Actual Time 7:20 AM EST 4:54 PM EST
Civil Twilight 6:51 AM EST 5:23 PM EST
Nautical Twilight 6:18 AM EST 5:56 PM EST
Astronomical Twilight 5:46 AM EST 6:28 PM EST
Moon 11:40 AM EST (12/12) 11:48 PM EST (12/12)
Length of Visible Light 10h 32m
Length of Day
9h 33m
Waxing Crescent, 42% of the Moon is Illuminated
Dec 12
Waxing Crescent
Dec 13
First Quarter
Dec 21
Full
Dec 27
Last Quarter
Jan 4
New

Hourly Weather History & Observations

Time (EST) Temp. Windchill Dew Point Humidity Pressure Visibility Wind Dir Wind Speed Gust Speed Precip Events Conditions
12:10 AM 35.6 °F - 32.0 °F 87% 29.92 in 1.2 mi Calm Calm - 0.01 in Rain Light Rain
12:25 AM 35.6 °F - 32.0 °F 87% 29.90 in 1.0 mi Calm Calm - 0.01 in Rain Light Rain
12:46 AM 33.8 °F - 32.0 °F 93% 29.88 in 0.8 mi Calm Calm - 0.02 in Rain Light Rain
12:53 AM 34.0 °F - 32.0 °F 92% 29.88 in 1.0 mi Calm Calm - 0.02 in Rain Light Rain
1:27 AM 33.8 °F - 32.0 °F 93% 29.84 in 0.8 mi Calm Calm - 0.01 in Rain Light Rain
1:53 AM 34.0 °F - 32.0 °F 92% 29.83 in 0.8 mi Calm Calm - 0.03 in Rain Light Rain
2:02 AM 33.8 °F - 32.0 °F 93% 29.81 in 1.0 mi Calm Calm - 0.01 in Rain Light Rain
2:24 AM 33.8 °F - 33.8 °F 100% 29.79 in 1.0 mi Calm Calm - 0.02 in Rain Light Rain
3:29 AM 35.6 °F - 33.8 °F 93% 29.73 in 0.8 mi Calm Calm - 0.01 in Rain Light Rain
3:42 AM 33.8 °F - 32.0 °F 93% 29.72 in 1.0 mi Calm Calm - 0.02 in Rain Light Rain
3:51 AM 33.8 °F - 33.8 °F 100% 29.71 in 0.8 mi Calm Calm - 0.02 in Rain Light Rain
3:53 AM 34.0 °F - 33.1 °F 96% 29.72 in 0.8 mi Calm Calm - 0.02 in   Mist
4:00 AM 33.8 °F - 33.8 °F 100% 29.70 in 1.0 mi Calm Calm - 0.00 in   Mist
4:53 AM 34.0 °F - 32.0 °F 92% 29.66 in 1.2 mi Calm Calm - 0.00 in   Overcast
5:03 AM 33.8 °F - 32.0 °F 93% 29.64 in 0.5 mi Calm Calm - N/A Fog Fog
5:24 AM 33.8 °F - 33.8 °F 100% 29.62 in 1.0 mi Calm Calm - N/A   Mist
5:36 AM 33.8 °F - 32.0 °F 93% 29.62 in 0.8 mi Calm Calm - 0.01 in   Mist
5:48 AM 33.8 °F - 32.0 °F 93% 29.62 in 0.8 mi Calm Calm - 0.01 in Fog Light Drizzle
5:53 AM 34.0 °F - 33.1 °F 96% 29.64 in 1.0 mi Calm Calm - 0.01 in Fog Light Drizzle
6:26 AM 35.6 °F - 33.8 °F 93% 29.61 in 1.5 mi Calm Calm - 0.00 in Fog Light Drizzle
6:53 AM 35.1 °F - 33.1 °F 92% 29.60 in 1.5 mi Calm Calm - 0.00 in   Overcast
7:00 AM 35.6 °F - 33.8 °F 93% 29.59 in 1.5 mi Calm Calm - N/A   Overcast
7:08 AM 35.6 °F - 33.8 °F 93% 29.59 in 1.0 mi Calm Calm - N/A   Overcast
7:19 AM 35.6 °F 32.8 °F 33.8 °F 93% 29.60 in 0.8 mi WSW 3.5 mph - N/A   Overcast
7:53 AM 35.1 °F - 33.1 °F 92% 29.59 in 0.8 mi Calm Calm - N/A   Mist
8:00 AM 35.6 °F - 33.8 °F 93% 29.59 in 1.2 mi Calm Calm - N/A   Overcast
8:16 AM 35.6 °F - 33.8 °F 93% 29.59 in 0.8 mi Calm Calm - N/A   Overcast
8:53 AM 36.0 °F - 35.1 °F 97% 29.56 in 0.2 mi Calm Calm - 0.01 in Fog , Rain Light Rain
9:53 AM 37.9 °F 32.7 °F 36.0 °F 93% 29.55 in 0.2 mi South 6.9 mph - 0.00 in Fog , Rain Light Rain
10:08 AM 37.4 °F 31.4 °F 35.6 °F 93% 29.53 in 1.2 mi South 8.1 mph - 0.00 in Rain Light Rain
10:53 AM 37.9 °F 32.1 °F 36.0 °F 93% 29.51 in 1.2 mi South 8.1 mph - 0.01 in Rain Light Rain
11:14 AM 37.4 °F 32.1 °F 35.6 °F 93% 29.49 in 2.5 mi South 6.9 mph - 0.00 in Rain Light Rain
11:21 AM 37.4 °F 33.8 °F 35.6 °F 93% 29.47 in 3.0 mi South 4.6 mph - 0.00 in Rain Light Rain
11:53 AM 37.9 °F 33.5 °F 36.0 °F 93% 29.47 in 2.5 mi South 5.8 mph - 0.02 in Rain Rain
12:25 PM 37.4 °F 32.8 °F 35.6 °F 93% 29.46 in 4.0 mi South 5.8 mph - 0.05 in Rain Light Rain
12:53 PM 37.9 °F 32.7 °F 36.0 °F 93% 29.44 in 4.0 mi South 6.9 mph - 0.06 in Rain Light Rain
1:09 PM 37.4 °F 34.9 °F 35.6 °F 93% 29.42 in 5.0 mi Variable 3.5 mph - 0.01 in Rain Light Rain
1:20 PM 37.4 °F - 37.4 °F 100% 29.42 in 5.0 mi Calm Calm - 0.01 in Rain Light Rain
1:40 PM 37.4 °F - 37.4 °F 100% 29.41 in 1.8 mi Calm Calm - 0.02 in Rain Light Rain
1:53 PM 37.9 °F - 36.0 °F 93% 29.40 in 2.5 mi Calm Calm - 0.02 in Rain Light Rain
2:00 PM 37.4 °F - 35.6 °F 93% 29.39 in 6.0 mi Calm Calm - N/A   Overcast
2:15 PM 39.2 °F 37.0 °F 35.6 °F 87% 29.37 in 6.0 mi SSE 3.5 mph - 0.00 in Rain Light Rain
2:43 PM 39.2 °F - 37.4 °F 93% 29.36 in 7.0 mi Calm Calm - 0.00 in Rain Light Rain
2:53 PM 39.0 °F - 37.0 °F 93% 29.37 in 10.0 mi Calm Calm - 0.00 in   Overcast
3:44 PM 39.2 °F - 37.4 °F 93% 29.34 in 8.0 mi Calm Calm - 0.00 in Rain Light Rain
3:53 PM 39.0 °F - 37.0 °F 93% 29.34 in 5.0 mi Calm Calm - 0.00 in Rain Light Rain
4:03 PM 39.2 °F - 37.4 °F 93% 29.33 in 2.5 mi Calm Calm - 0.00 in Rain Light Rain
4:11 PM 39.2 °F - 37.4 °F 93% 29.33 in 4.0 mi Calm Calm - 0.01 in Rain Light Rain
4:49 PM 39.2 °F - 37.4 °F 93% 29.32 in 0.8 mi Calm Calm - 0.01 in   Overcast
4:53 PM 39.0 °F - 37.0 °F 93% 29.32 in 3.0 mi Calm Calm - 0.01 in   Overcast
5:45 PM 37.4 °F - 35.6 °F 93% 29.30 in 3.0 mi Calm Calm - 0.00 in   Overcast
5:53 PM 37.9 °F - 36.0 °F 93% 29.31 in 3.0 mi Calm Calm - 0.00 in   Overcast
6:53 PM 36.0 °F - 34.0 °F 93% 29.34 in 0.2 mi Calm Calm - N/A Fog Fog
7:53 PM 35.1 °F - 33.1 °F 92% 29.30 in 0.2 mi Calm Calm - N/A Fog Fog
8:53 PM 36.0 °F - 35.1 °F 97% 29.29 in 0.5 mi Calm Calm - N/A Fog Fog
9:33 PM 35.6 °F - 33.8 °F 93% 29.27 in 0.5 mi Calm Calm - N/A Fog Fog
9:48 PM 35.6 °F - 33.8 °F 93% 29.28 in 1.2 mi Calm Calm - N/A   Overcast
9:53 PM 36.0 °F - 34.0 °F 93% 29.28 in 2.0 mi Calm Calm - N/A   Overcast
10:04 PM 35.6 °F 32.8 °F 33.8 °F 93% 29.28 in 0.8 mi SSW 3.5 mph - N/A   Overcast
10:15 PM 35.6 °F 32.8 °F 33.8 °F 93% 29.27 in 1.8 mi NW 3.5 mph - 0.00 in Rain Light Rain
10:20 PM 37.4 °F - 33.8 °F 87% 29.27 in 4.0 mi Calm Calm - 0.00 in Rain Light Rain
10:28 PM 35.6 °F - 33.8 °F 93% 29.27 in 5.0 mi Calm Calm - 0.00 in Rain Light Rain